User: anonymous   Login
Location: Unspecified
(0.0000°N, 0.0000°E)
Time: 22:18:29
(UTC+00:00)
Language:

Altair - Orbit

View from above orbital plane
View from above orbital plane
View from above satellite
View from above satellite

Ground track
Ground track

The orbit data is extracted from the following two-line orbital elements,

1    50U 60009B   17289.31602816 -.00000060 +00000-0 +23709-3 0  9995
2    50 047.2309 267.7503 0114506 299.4463 059.4940 12.20103145551164
Epoch (UTC): 16 October 2017 07:35:04
Eccentricity: 0.0114506
inclination: 47.2309°
perigee height: 1501 km
apogee height: 1683 km
right ascension of ascending node: 267.7503°
argument of perigee: 299.4463°
revolutions per day: 12.20103145
mean anomaly at epoch: 59.4940°
orbit number at epoch: 55116

The dashed part of the orbit path shows where the satellite is in the earth's shadow,  

DLR